Home > Weather > Dakar > Past weeks

Flag for Senegal Past Weather in Dakar, Senegal — Yesterday and Last 2 Weeks

Now
81 °F

Passing clouds.


Feels Like: 85 °F
Forecast: 75 / 85 °F
Wind: 14 mph from Southwest

Location: Dakar / Yoff

Current Time: Jun 30, 2016 at 5:39:44 PM

Latest Report: Jun 30, 2016 at 5:00 PM


Visibility: N/A

Pressure: 29.98 "Hg

Humidity: 79%

Dew Point: 73 °F

Location of DakarLocation

Past Weather in Dakar — Graph

°F

Dakar Temperature Yesterday

Maximum temperature yesterday: 82 °F (at 1:00 PM)
Minimum temperature yesterday: 75 °F (at 12:00 AM)
Average temperature yesterday: 78 °F

High & Low Weather Summary for the Past Weeks

 TemperatureHumidityPressure
High95 °F (Jun 26, 8:00 AM)94% (Jun 16, 3:00 AM)30.09 "Hg (Jun 16, 3:00 AM)
Low72 °F (Jun 16, 3:00 AM)50% (Jun 26, 8:00 AM)29.80 "Hg (Jun 21, 4:30 PM)
Average78 °F77%29.95 "Hg
* Reported Jun 15 4:00 PM — Jun 30 4:30 PM, Dakar, Weather by CustomWeather, © 2016

Note: Actual official high and low records may vary slightly from our data, if they occured in-between our weather recording intervals... More about our weather records

Advertising

Dakar Weather History for the Previous 24 Hours

Scroll right to see more
 ConditionsComfort  
Time TempWeatherWind HumidityBarometerVisibility
4:30 PM
Thu, Jun 30
82 °FPassing clouds.18 mph74%29.95 "Hg5 mi
4:00 PM84 °FPassing clouds.17 mph66%29.98 "HgN/A
3:30 PM84 °FPassing clouds.16 mph70%29.98 "HgN/A
3:00 PM86 °FPassing clouds.12 mph66%30.01 "HgN/A
2:30 PM84 °FPassing clouds.12 mph70%29.98 "HgN/A
2:00 PM84 °FPassing clouds.10 mph70%29.98 "HgN/A
1:30 PM86 °FPassing clouds.7 mph66%29.98 "HgN/A
1:00 PM84 °FPassing clouds.7 mph70%30.01 "HgN/A
12:30 PM82 °FPassing clouds.8 mph74%30.04 "HgN/A
12:00 PM81 °FPassing clouds.12 mph79%30.07 "Hg5 mi
11:30 AM81 °FScattered clouds.15 mph79%30.07 "Hg5 mi
11:00 AM79 °FPartly sunny.15 mph84%30.07 "Hg5 mi
10:30 AM79 °FPartly sunny.16 mph84%30.09 "HgN/A
10:00 AM79 °FPartly sunny.14 mph84%30.07 "HgN/A
9:30 AM79 °FScattered clouds.12 mph84%30.07 "HgN/A
9:00 AM79 °FScattered clouds.6 mph84%30.04 "HgN/A
8:30 AM77 °FScattered clouds.2 mph89%30.01 "HgN/A
8:00 AM77 °FScattered clouds.3 mph89%29.98 "HgN/A
7:30 AM77 °FPassing clouds.3 mph89%29.98 "HgN/A
7:00 AM75 °FPassing clouds.3 mph94%29.98 "HgN/A
6:30 AM75 °FPassing clouds.3 mph94%29.95 "HgN/A
6:00 AM77 °FPassing clouds.3 mph83%29.95 "HgN/A
5:30 AM77 °FPassing clouds.5 mph83%29.95 "HgN/A
5:00 AM75 °FPassing clouds.1 mph89%29.95 "HgN/A
4:30 AM77 °FPassing clouds.2 mph83%29.95 "HgN/A
4:00 AM77 °FPassing clouds.6 mph83%29.95 "HgN/A
3:30 AM77 °FPassing clouds.6 mph83%29.95 "HgN/A
3:00 AM77 °FPassing clouds.6 mph83%29.95 "HgN/A
2:30 AM77 °FPassing clouds.7 mph83%29.95 "HgN/A
2:00 AM77 °FPassing clouds.7 mph83%29.95 "HgN/A
1:30 AM77 °FPassing clouds.6 mph83%29.98 "HgN/A
1:00 AM77 °FPassing clouds.7 mph83%29.98 "HgN/A
12:30 AM77 °FPassing clouds.8 mph83%29.98 "HgN/A
12:00 AM77 °FPassing clouds.9 mph83%29.98 "HgN/A
11:30 PM
Wed, Jun 29
77 °FPassing clouds.10 mph83%29.95 "HgN/A
11:00 PM77 °FPassing clouds.9 mph83%29.92 "HgN/A
10:30 PM77 °FPassing clouds.9 mph83%29.92 "HgN/A
10:00 PM77 °FPassing clouds.9 mph83%29.92 "HgN/A
9:30 PM77 °FPassing clouds.9 mph83%29.92 "HgN/A
9:00 PM77 °FPassing clouds.9 mph83%29.98 "HgN/A
8:30 PM77 °FPassing clouds.8 mph83%29.92 "HgN/A
8:00 PM77 °FPassing clouds.8 mph83%29.92 "HgN/A
6:30 PM81 °FPassing clouds.13 mph74%29.89 "HgN/A
6:00 PM81 °FPassing clouds.12 mph74%29.89 "HgN/A
5:30 PM81 °FPassing clouds.12 mph74%29.89 "HgN/A
5:00 PM81 °FThunderstorms. Passing clouds.13 mph74%29.89 "HgN/A
Weather by CustomWeather, © 2016

See weather overviewHow to use our weather pages